Terminal Aerodrome Forecast
Issued by NWS Shreveport, LA

Home | Current Version | Previous Version | Text Only | Print | Product List | Glossary On
Versions: 1 2 3 4 5 6 7 8 9 10 11 12 13 14 15 16 17 18 19 20 21
000
FTUS44 KSHV 020522
TAFSHV
TAF
KSHV 020522Z 0206/0306 18010KT P6SM BKN150 BKN290
      TEMPO 0206/0208 BKN015
     FM020800 18008KT 6SM BR BKN015
      TEMPO 0209/0213 5SM BR OVC008
     FM021600 19015G24KT P6SM SCT025 OVC035=

USA.gov is the U.S. government's official web portal to all federal, state and local government web resources and services.